DIAMANT R/B, 2682

Orbit data source: Space-Track

DIAMANT R/B, 2682 is space debris in LEO originally from a launch on Wed, 15 Feb 1967 UTC launched from the Hamma Guira Space Track Range (HGSTR). Debris objects in space refer to the collection of defunct objects orbiting the Earth. Examples of debris include non-operational satellites, rocket bodies, and fragments generated from explosions, collisions, or faulty payload assembly.

Loading next visibility...
Identifier
2682, 1967-014B
Orbit
LEO
Country
Flag of FRFR
Related business
Manufacturer
Sud
Mission
Spacecraft
Bus & Motor
RUBIS, Unknown motor
Mass
65 kg wet, 65 kg dry
Launch date (UTC)
1967-02-15 (60 years ago)
Launch vehicle
Unknown
Launch site
Hamma Guira Space Track Range (HGSTR)
Object type
Payload
Rocket body
Debris
Shape & HBR
CYL, 1.1 m
Radar Cross Section
Large (>1 m²)

Expand to show TLE details & history
Last TLE update: 20 hours ago

TLE from 20 hours ago
0 DIAMANT R/B
1 02682U 67014B   26254.00511882  .00000145  00000-0  98295-4 0  9997
2 02682  39.4566 256.0956 0745527  64.1812 303.3889 13.32670389875330
Epoch: 2026-09-11T00:07Z
TLE epoch observation values (Epoch: 2026-09-11T00:07:22.266Z)
Latitude
0.00003°
Longitude
-95.78183°
Altitude
858.774 km
Speed
7.56 km/s
True Right ascension
17h 04m 22s
True Declination
0° 00' 00"
Sunlit
Object was in daylight at epoch
Visualization orbit readout
Latitude
Unknown
Longitude
Unknown
Altitude
Unknown
Speed
Unknown
Apparent Right ascension
Unknown
Apparent Declination
Unknown
Sunlit
N/A
Visualization observer readout
Local Sidereal Time
12:24:55
Azimuth
Unknown
Elevation
Unknown
Doppler factor
Unknown
Orbital elements
Apogee altitude
1,699.469 km
Perigee altitude
578.617 km
Semi-major axis
7,517.18 km
Eccentricity
0.07455
Inclination
39.4566°
RAAN
256.0956°
Arg. of periapsis
64.1812°
True anomaly
295.89266°
Mean anomaly
303.3889°
Eccentric anomaly
299.67767°
Mean motion
3.33013 °/min
Orbital period
108.1 mins
BSTAR
0.000098295
Loading maneuver chart data...
Computing Atmospheric mass density...
Loading historical data...
Loading historical data...
Loading historical data...
Loading historical data...
Loading historical data...
Loading historical data...
Loading historical data...

Documentation

Showing up to 5 results
|